Torna al catalogo

DELTA 1 DEB

AttivoSSO
NORAD 21374·DEBRIS·🇺🇸 United States

Lanciato Jun 12, 1975 da Vandenberg Space Force Base

Loading…

Prossimi Passaggi (prossime 24 ore)

TLE

AggiornatoSource: Space-Track

Epoca: Sep 14, 2026, 01:08 UTC

1 21374U 75052CU  26257.04754170  .00000471  00000-0  53408-3 0  9991
2 21374  99.8663 103.2633 0257309  64.9688  85.6807 13.62220439745872

Traccia DELTA 1 DEB in tempo reale con AllMySat

Download on the App Store